Roanoke, VA

7:09 PM EST on February 27, 2017 (GMT -0500)
Roanoke Regional-Woodrum

Weather History for KROA - December, 2013

Change the Weather History Date:

Wednesday, December 18, 2013

  Actual Average Record
Temperature  
Mean Temperature 39 °F 38 °F  
Max Temperature 45 °F 47 °F 78 °F (1924)
Min Temperature 32 °F 30 °F 11 °F (1932)
Degree Days  
Heating Degree Days 26 27  
Month to date heating degree days 413 446  
Since 1 July heating degree days 1285 1250  
Cooling Degree Days 0 0  
Month to date cooling degree days 0 0  
Year to date cooling degree days 1227 1208  
Moisture  
Dew Point 16 °F    
Average Humidity 42    
Maximum Humidity 56    
Minimum Humidity 27    
Precipitation  
Precipitation 0.00 in 0.08 in 1.01 in (2009)
Month to date precipitation 2.26 1.80  
Year to date precipitation 50.98 40.11  
Snow  
Snow 0.00 in - - ()
Month to date snowfall T  
Since 1 July snowfall T  
Snow Depth 0.00 in    
Sea Level Pressure  
Sea Level Pressure 30.20 in    
Wind  
Wind Speed 12 mph (West)    
Max Wind Speed 26 mph    
Max Gust Speed 40 mph    
Visibility 10 miles    
Events      
T = Trace of Precipitation, MM = Missing Value Source: NWS Daily Summary

Daily Weather History Graph

Daily Weather History Graph

Search for Another Location

Airport or City:

Trip Planner

Search our weather history database for the weather conditions in past years. The results will help you decide how hot, cold, wet, or windy it might be!

Date:

Astronomy

Dec. 18, 2013 Rise Set
Actual Time 7:28 AM EST 5:04 PM EST
Civil Twilight 6:59 AM EST 5:33 PM EST
Nautical Twilight 6:26 AM EST 6:06 PM EST
Astronomical Twilight 5:55 AM EST 6:38 PM EST
Moon 6:33 PM EST (12/18) 8:09 AM EST (12/18)
Length of Visible Light 10h 34m
Length of Day
9h 35m
Full, 98% of the Moon is Illuminated
Dec 18
Full
Dec 25
Last Quarter
Jan 1
New
Jan 7
First Quarter
Jan 15
Full

Hourly Weather History & Observations

Time (EST) Temp. Windchill Dew Point Humidity Pressure Visibility Wind Dir Wind Speed Gust Speed Precip Events Conditions
12:54 AM 37.0 °F 25.9 °F 21.0 °F 52% 30.03 in 10.0 mi West 23.0 mph 35.7 mph N/A   Clear
1:54 AM 36.0 °F 25.0 °F 21.9 °F 57% 30.07 in 10.0 mi WNW 20.7 mph 27.6 mph N/A   Overcast
2:54 AM 34.0 °F 22.7 °F 17.1 °F 50% 30.10 in 10.0 mi WNW 19.6 mph 40.3 mph N/A   Clear
3:54 AM 33.1 °F 21.9 °F 16.0 °F 50% 30.13 in 10.0 mi WNW 18.4 mph 25.3 mph N/A   Clear
4:54 AM 33.1 °F 23.4 °F 17.1 °F 52% 30.14 in 10.0 mi WNW 13.8 mph 21.9 mph N/A   Partly Cloudy
5:54 AM 33.1 °F 21.5 °F 16.0 °F 50% 30.15 in 10.0 mi West 19.6 mph 29.9 mph N/A   Clear
6:54 AM 32.0 °F 22.5 °F 17.1 °F 54% 30.18 in 10.0 mi WNW 12.7 mph 24.2 mph N/A   Partly Cloudy
7:54 AM 32.0 °F 22.5 °F 15.1 °F 50% 30.20 in 10.0 mi WNW 12.7 mph 19.6 mph N/A   Partly Cloudy
8:54 AM 33.1 °F 23.4 °F 15.1 °F 48% 30.23 in 10.0 mi WNW 13.8 mph 27.6 mph N/A   Partly Cloudy
9:54 AM 36.0 °F 28.0 °F 15.1 °F 43% 30.25 in 10.0 mi West 11.5 mph - N/A   Clear
10:54 AM 39.0 °F 31.0 °F 16.0 °F 39% 30.24 in 10.0 mi West 13.8 mph 18.4 mph N/A   Clear
11:54 AM 39.0 °F 33.4 °F 16.0 °F 39% 30.23 in 10.0 mi SW 8.1 mph 16.1 mph N/A   Clear
12:54 PM 42.1 °F 36.1 °F 16.0 °F 35% 30.22 in 10.0 mi West 10.4 mph 23.0 mph N/A   Clear
1:54 PM 43.0 °F 37.2 °F 16.0 °F 34% 30.21 in 10.0 mi SW 10.4 mph - N/A   Clear
2:54 PM 45.0 °F 39.3 °F 14.0 °F 29% 30.21 in 10.0 mi WSW 11.5 mph 18.4 mph N/A   Clear
3:54 PM 45.0 °F 40.1 °F 12.9 °F 27% 30.23 in 10.0 mi WSW 9.2 mph - N/A   Clear
4:54 PM 42.1 °F 37.7 °F 12.9 °F 31% 30.23 in 10.0 mi West 6.9 mph - N/A   Clear
5:54 PM 39.0 °F 34.8 °F 12.9 °F 34% 30.25 in 10.0 mi West 5.8 mph - N/A   Clear
6:54 PM 39.0 °F 34.0 °F 12.9 °F 34% 30.26 in 10.0 mi WNW 6.9 mph - N/A   Clear
7:54 PM 37.9 °F 32.7 °F 12.9 °F 36% 30.27 in 10.0 mi WNW 6.9 mph - N/A   Clear
8:54 PM 35.1 °F 31.0 °F 15.1 °F 44% 30.27 in 10.0 mi West 4.6 mph - N/A   Clear
9:54 PM 35.1 °F 27.9 °F 19.0 °F 52% 30.28 in 10.0 mi West 9.2 mph - N/A   Clear
10:54 PM 37.0 °F 29.8 °F 19.0 °F 48% 30.27 in 10.0 mi West 10.4 mph - N/A   Clear
11:54 PM 36.0 °F 31.1 °F 19.0 °F 50% 30.27 in 10.0 mi WNW 5.8 mph - N/A   Clear